Total_Precipitation_Accumulation
0.00 0.00 0.00 0.00 0.00 0.00 0.00 0.00 0.01 0.03 0.07 0.12 0.14 0.12 0.12 0.11 0.12 0.14 0.12 0.12 0.10 0.08 0.09 0.15 0.26 0.43 0.61 0.78 1.00 1.09 0.89 0.74 0.59 0.47 0.46 0.55 0.62 0.65 0.67 0.69 0.74 0.68 0.53
0.00 0.00 0.00 0.00 0.00 0.00 0.00 0.00 0.00 0.00 0.00 0.01 0.02 0.05 0.09 0.12 0.15 0.16 0.14 0.13 0.12 0.09 0.09 0.11 0.17 0.30 0.50 0.72 0.96 1.26 1.18 1.03 0.86 0.65 0.48 0.47 0.53 0.58 0.60 0.65 0.69 0.75 0.69
0.00 0.00 0.00 0.00 0.00 0.00 0.00 0.00 0.00 0.00 0.00 0.00 0.00 0.00 0.01 0.03 0.07 0.12 0.12 0.14 0.16 0.13 0.11 0.12 0.14 0.19 0.33 0.57 0.84 1.15 1.45 1.35 1.17 0.98 0.73 0.50 0.47 0.51 0.55 0.62 0.67 0.73 0.76
0.00 0.00 0.00 0.00 0.00 0.00 0.00 0.00 0.00 0.00 0.00 0.00 0.00 0.00 0.00 0.00 0.00 0.02 0.04 0.09 0.14 0.17 0.15 0.15 0.16 0.17 0.22 0.34 0.58 0.91 1.40 1.52 1.50 1.34 1.16 0.83 0.56 0.50 0.52 0.57 0.66 0.73 0.78
0.00 0.00 0.00 0.00 0.00 0.00 0.00 0.00 0.00 0.00 0.00 0.00 0.00 0.00 0.00 0.00 0.00 0.00 0.00 0.02 0.05 0.11 0.15 0.16 0.16 0.16 0.16 0.20 0.34 0.59 1.01 1.43 1.60 1.57 1.47 1.26 0.89 0.60 0.54 0.56 0.61 0.72 0.79
0.00 0.00 0.00 0.00 0.00 0.00 0.00 0.00 0.00 0.00 0.00 0.00 0.00 0.00 0.00 0.00 0.00 0.00 0.00 0.00 0.01 0.05 0.09 0.12 0.14 0.15 0.15 0.15 0.21 0.35 0.65 1.09 1.52 1.62 1.56 1.52 1.34 0.91 0.65 0.59 0.61 0.70 0.79
0.00 0.00 0.00 0.00 0.00 0.01 0.00 0.00 0.00 0.00 0.01 0.00 0.00 0.00 0.00 0.00 0.00 0.00 0.00 0.00 0.00 0.02 0.06 0.10 0.13 0.14 0.14 0.15 0.15 0.18 0.37 0.72 1.22 1.75 1.76 1.65 1.68 1.43 0.97 0.75 0.70 0.73 0.83
0.00 0.00 0.00 0.01 0.01 0.01 0.00 0.00 0.01 0.02 0.02 0.01 0.03 0.06 0.04 0.01 0.00 0.00 0.00 0.00 0.00 0.00 0.02 0.06 0.12 0.13 0.12 0.14 0.11 0.12 0.17 0.34 0.72 1.36 2.00 2.02 1.95 1.96 1.55 1.10 0.90 0.86 0.93
0.00 0.00 0.00 0.01 0.02 0.01 0.01 0.01 0.02 0.03 0.04 0.02 0.03 0.14 0.23 0.15 0.04 0.00 0.00 0.00 0.00 0.00 0.00 0.02 0.06 0.11 0.14 0.15 0.14 0.12 0.14 0.20 0.36 0.78 1.55 2.26 2.34 2.35 2.20 1.58 1.21 1.06 1.05
0.00 0.00 0.01 0.01 0.01 0.01 0.01 0.02 0.02 0.04 0.07 0.08 0.04 0.06 0.14 0.19 0.24 0.12 0.02 0.03 0.03 0.03 0.02 0.02 0.03 0.07 0.13 0.18 0.21 0.21 0.22 0.23 0.30 0.50 0.99 1.81 2.51 2.67 2.71 2.29 1.64 1.34 1.23
0.00 0.00 0.01 0.01 0.01 0.01 0.01 0.02 0.03 0.04 0.08 0.11 0.11 0.10 0.08 0.07 0.12 0.22 0.10 0.04 0.07 0.08 0.07 0.05 0.06 0.09 0.12 0.20 0.23 0.23 0.30 0.35 0.46 0.51 0.71 1.16 2.06 2.74 3.06 2.98 2.34 1.67 1.39
0.00 0.00 0.00 0.00 0.01 0.01 0.02 0.03 0.04 0.05 0.06 0.07 0.10 0.12 0.16 0.18 0.13 0.18 0.18 0.06 0.03 0.04 0.06 0.08 0.08 0.12 0.15 0.20 0.26 0.35 0.35 0.43 0.60 0.57 0.50 0.66 1.22 2.05 2.79 3.16 2.92 2.20 1.63
0.00 0.00 0.00 0.00 0.00 0.01 0.01 0.03 0.04 0.05 0.05 0.07 0.09 0.11 0.13 0.15 0.15 0.19 0.24 0.14 0.06 0.02 0.01 0.04 0.07 0.10 0.15 0.18 0.22 0.28 0.27 0.33 0.43 0.47 0.39 0.37 0.62 1.16 1.96 2.81 3.17 2.75 2.06
0.00 0.00 0.00 0.00 0.00 0.01 0.01 0.03 0.04 0.04 0.05 0.07 0.08 0.11 0.16 0.13 0.16 0.23 0.30 0.35 0.28 0.08 0.02 0.03 0.04 0.07 0.11 0.16 0.16 0.18 0.16 0.19 0.26 0.33 0.35 0.29 0.33 0.57 1.09 1.96 3.10 3.48 2.85
0.00 0.00 0.00 0.00 0.00 0.01 0.02 0.04 0.05 0.05 0.08 0.10 0.12 0.15 0.19 0.17 0.19 0.22 0.27 0.41 0.58 0.42 0.11 0.03 0.04 0.07 0.13 0.14 0.16 0.15 0.13 0.14 0.18 0.24 0.30 0.30 0.28 0.33 0.51 1.00 1.89 3.16 3.80
0.00 0.00 0.00 0.00 0.01 0.02 0.04 0.06 0.06 0.08 0.11 0.13 0.16 0.20 0.21 0.21 0.22 0.23 0.29 0.33 0.46 0.58 0.34 0.05 0.04 0.08 0.18 0.19 0.17 0.15 0.15 0.16 0.16 0.17 0.20 0.23 0.25 0.28 0.36 0.56 1.01 1.78 2.95
0.00 0.00 0.00 0.01 0.03 0.05 0.07 0.09 0.08 0.10 0.14 0.15 0.18 0.22 0.23 0.26 0.29 0.26 0.29 0.32 0.33 0.40 0.38 0.10 0.03 0.05 0.15 0.21 0.20 0.15 0.15 0.16 0.15 0.16 0.18 0.21 0.24 0.29 0.37 0.47 0.65 1.02 1.70
0.00 0.00 0.01 0.03 0.06 0.10 0.11 0.13 0.13 0.13 0.16 0.18 0.20 0.24 0.26 0.25 0.26 0.24 0.27 0.28 0.25 0.24 0.29 0.18 0.05 0.05 0.10 0.18 0.26 0.27 0.21 0.19 0.18 0.18 0.20 0.24 0.29 0.30 0.33 0.41 0.55 0.76 1.11
0.00 0.00 0.01 0.05 0.13 0.20 0.19 0.15 0.19 0.20 0.19 0.21 0.23 0.26 0.26 0.26 0.25 0.22 0.27 0.27 0.21 0.19 0.23 0.24 0.11 0.06 0.10 0.13 0.24 0.34 0.30 0.26 0.23 0.21 0.21 0.23 0.28 0.33 0.32 0.33 0.41 0.56 0.75
0.01 0.01 0.01 0.03 0.14 0.33 0.36 0.27 0.32 0.30 0.24 0.20 0.17 0.17 0.24 0.34 0.33 0.31 0.33 0.27 0.23 0.25 0.26 0.28 0.19 0.11 0.13 0.15 0.24 0.35 0.40 0.38 0.32 0.26 0.25 0.24 0.28 0.37 0.36 0.29 0.25 0.31 0.49
0.01 0.01 0.01 0.02 0.08 0.42 0.79 0.74 0.67 0.49 0.28 0.17 0.11 0.10 0.19 0.32 0.36 0.49 0.58 0.48 0.44 0.47 0.40 0.37 0.32 0.26 0.24 0.26 0.31 0.33 0.45 0.49 0.43 0.37 0.31 0.26 0.26 0.26 0.28 0.27 0.25 0.25 0.30
0.01 0.02 0.02 0.02 0.04 0.30 0.83 0.91 0.67 0.36 0.22 0.16 0.11 0.08 0.11 0.22 0.25 0.30 0.40 0.47 0.52 0.60 0.60 0.54 0.49 0.43 0.35 0.34 0.33 0.38 0.43 0.52 0.54 0.49 0.43 0.32 0.31 0.33 0.29 0.27 0.29 0.26 0.28
0.02 0.02 0.02 0.02 0.02 0.16 0.66 0.77 0.47 0.25 0.16 0.12 0.09 0.07 0.08 0.16 0.22 0.28 0.31 0.29 0.28 0.37 0.54 0.60 0.60 0.46 0.40 0.35 0.38 0.42 0.42 0.48 0.54 0.63 0.64 0.52 0.40 0.39 0.37 0.42 0.46 0.35 0.31
0.02 0.02 0.02 0.02 0.01 0.08 0.51 0.64 0.36 0.19 0.12 0.09 0.05 0.06 0.06 0.11 0.23 0.40 0.39 0.33 0.28 0.32 0.46 0.54 0.68 0.66 0.54 0.51 0.62 0.70 0.67 0.52 0.44 0.58 0.73 0.73 0.58 0.48 0.52 0.56 0.56 0.45 0.37
0.02 0.02 0.02 0.01 0.01 0.02 0.30 0.53 0.34 0.17 0.10 0.06 0.03 0.04 0.06 0.09 0.21 0.35 0.32 0.24 0.18 0.22 0.28 0.39 0.49 0.57 0.57 0.61 0.70 0.82 0.79 0.61 0.53 0.62 0.76 0.85 0.85 0.72 0.77 0.84 0.76 0.61 0.46
0.02 0.02 0.02 0.01 0.01 0.01 0.14 0.37 0.38 0.20 0.10 0.06 0.04 0.02 0.06 0.15 0.22 0.28 0.21 0.18 0.27 0.28 0.24 0.21 0.22 0.29 0.35 0.41 0.54 0.76 0.94 0.83 0.67 0.78 0.87 0.88 1.04 0.96 1.03 1.09 0.97 0.73 0.54